Location: Budapest
(47.4979°N, 19.0402°E)
Time: 02:42:47
(UTC+02:00)

Amateur Radio Satellites - All Passes

Search period start: 22 October 2017 02:12
Search period end: 23 October 2017 02:12
Location: Budapest, 47.4979°N, 19.0402°E

Satellite Date Start Highest point End Downlink Frequencies (MHz)
Time Altitude Azimuth
NO-84 22 Oct 02:13:33 02:16:36 19° 129° (SE) 02:19:39 435.350 FM
50 SAT 22 Oct 02:14:45 02:16:53 16° 267° (W) 02:19:02 437.505
M-CUBED/EXP-1 PRIME 22 Oct 02:16:18 02:19:34 33° 104° (ESE) 02:23:02 437.505
DX 1 22 Oct 02:24:06 02:27:36 24° 266° (W) 02:31:09 434.975-435.025
CUBESAT XI-V 22 Oct 02:24:25 02:25:20 11° 55° (NE) 02:26:17 437.345
EO-79 22 Oct 02:29:37 02:31:26 13° 302° (WNW) 02:33:16 145.935-145.965
POLYITAN 1 22 Oct 02:35:12 02:36:32 11° 303° (WNW) 02:37:53 437.675
UKube-1 22 Oct 02:45:13 02:48:36 22° 266° (W) 02:51:59 .
ITUPSAT 1 22 Oct 02:48:01 02:52:44 58° 71° (ENE) 02:57:29 437.325
BEESAT 22 Oct 03:02:27 03:07:15 80° 73° (ENE) 03:12:04 436.000
BUGSAT 1 22 Oct 03:07:32 03:10:37 20° 297° (WNW) 03:13:41 437.445
Oscar 19 22 Oct 03:07:56 03:12:52 48° 291° (WNW) 03:17:46 437.125/150
AO-7 22 Oct 03:19:04 03:26:06 29° 94° (E) 03:33:06 .
KKS-1 22 Oct 03:24:36 03:26:36 13° 57° (ENE) 03:28:38 437.445
MOZHAYETS 4 22 Oct 03:42:30 03:46:52 40° 263° (W) 03:51:15
ITAMSAT 1 22 Oct 03:43:55 03:48:25 28° 94° (E) 03:52:54 435.822/435.867
NO-84 22 Oct 03:49:17 03:53:36 90° 327° (NNW) 03:57:49 435.350 FM
M-CUBED/EXP-1 PRIME 22 Oct 03:51:08 03:53:53 22° 299° (WNW) 03:56:46 437.505
Gurwin Techsat 1B 22 Oct 03:51:30 03:56:10 32° 296° (WNW) 04:00:50 435.225
STARS 22 Oct 03:54:04 03:55:10 11° 55° (NE) 03:56:16 437.465
CUBESAT XI-V 22 Oct 03:57:16 04:01:52 71° 73° (ENE) 04:06:29 437.345
RS-15 22 Oct 04:27:17 04:38:27 37° 345° (NNW) 04:49:22 29.354- 29.394
ITUPSAT 1 22 Oct 04:27:33 04:30:56 19° 269° (W) 04:34:20 437.325
O/OREOS (USA 219) 22 Oct 04:29:59 04:32:46 16° 45° (NE) 04:35:33 437.305
BEESAT 22 Oct 04:43:15 04:45:37 13° 272° (W) 04:47:59 436.000
KKS-1 22 Oct 04:58:03 05:02:29 88° 258° (WSW) 05:06:59 437.445
AO-7 22 Oct 05:11:17 05:19:32 72° 295° (WNW) 05:27:47 .
ITAMSAT 1 22 Oct 05:23:05 05:28:02 44° 293° (WNW) 05:32:59 435.822/435.867
STARS 22 Oct 05:26:20 05:30:43 77° 74° (ENE) 05:35:10 437.465
NO-84 22 Oct 05:27:30 05:31:25 33° 346° (NNW) 05:35:09 435.350 FM
STRAND 1 22 Oct 05:28:16 05:30:27 13° 53° (NE) 05:32:38 437.568
DOVE 4 22 Oct 05:30:43 05:35:30 43° 98° (E) 05:40:26 437.250
CUBESAT XI-V 22 Oct 05:37:15 05:39:45 14° 272° (W) 05:42:15 437.345
XW-2B 22 Oct 05:46:07 05:47:33 12° 89° (E) 05:48:59 145.730 - 145.750
CUTE-I 22 Oct 06:04:24 06:08:23 21° 91° (E) 06:12:21 437.470
XW-2C 22 Oct 06:08:14 06:11:10 21° 93° (E) 06:14:04 145.795 - 145.815
O/OREOS (USA 219) 22 Oct 06:08:15 06:12:53 89° 254° (WSW) 06:17:29 437.305
SO-50 22 Oct 06:08:21 06:12:06 27° 115° (ESE) 06:15:53 436.795
KKS-1 22 Oct 06:39:10 06:39:43 10° 273° (W) 06:40:16 437.445
RS-15 22 Oct 06:43:50 06:55:03 39° 19° (NNE) 07:05:47 29.354- 29.394
KAITUO 1B 22 Oct 06:46:34 06:50:05 42° 98° (E) 06:53:36 145.475/437.950
XW-2F 22 Oct 06:51:07 06:54:49 62° 101° (E) 06:58:30 145.980 - 146.000
NUDT-PHONESAT 22 Oct 06:57:56 07:01:33 55° 100° (E) 07:05:08 437.300
LilacSat-2 22 Oct 06:59:50 07:03:36 90° 350° (N) 07:07:22 437.200
FO-29 22 Oct 07:02:30 07:05:50 17° 53° (NE) 07:09:22 435.910
STRAND 1 22 Oct 07:03:37 07:08:44 73° 73° (ENE) 07:13:54 437.568
XW-2D 22 Oct 07:04:50 07:08:37 82° 281° (WNW) 07:12:20 145.860 - 145.880
AO-7 22 Oct 07:05:14 07:10:59 21° 316° (NW) 07:16:45 .
STARS 22 Oct 07:05:45 07:07:37 12° 272° (W) 07:09:29 437.465
NO-84 22 Oct 07:05:58 07:09:38 29° 7° (N) 07:13:06 435.350 FM
DOVE 4 22 Oct 07:08:45 07:12:59 29° 294° (WNW) 07:17:22 437.250
HO-68 22 Oct 07:11:44 07:18:12 34° 95° (E) 07:24:37 435.675
YUBILEINY 22 Oct 07:14:24 07:15:31 10° 67° (ENE) 07:16:40 435.215
CUBEBUG 2 22 Oct 07:14:52 07:18:09 19° 90° (E) 07:21:19 437.445
XW-2B 22 Oct 07:18:25 07:22:07 59° 286° (WNW) 07:25:47 145.730 - 145.750
PCSat 22 Oct 07:23:29 07:27:50 25° 109° (ESE) 07:32:13 145.827
CUTE 1.7 + AOD 2 22 Oct 07:32:33 07:36:34 42° 98° (E) 07:40:33 437.475
SEEDS 22 Oct 07:36:36 07:40:15 29° 95° (E) 07:43:55 437.485
XW-2C 22 Oct 07:42:03 07:45:24 31° 291° (WNW) 07:48:44 145.795 - 145.815
CUTE-I 22 Oct 07:43:33 07:48:52 63° 289° (WNW) 07:54:10 437.470
SO-50 22 Oct 07:48:02 07:52:21 46° 315° (NW) 07:56:44 436.795
UWE-3 22 Oct 07:49:10 07:52:46 23° 92° (E) 07:56:17 435.000/436.395/437.385
O/OREOS (USA 219) 22 Oct 07:50:17 07:51:31 11° 264° (W) 07:52:44 437.305
AAUSAT CUBESAT 2 22 Oct 07:55:38 07:58:50 21° 93° (E) 08:02:02 437.432
UNISAT 6 22 Oct 08:03:37 08:05:40 13° 56° (ENE) 08:07:43 437.425
XW-2A 22 Oct 08:05:22 08:08:24 31° 97° (E) 08:11:24 145.665 - 145.685
TIGRISAT 22 Oct 08:17:06 08:19:51 16° 58° (ENE) 08:22:36 435.000
KAITUO 1B 22 Oct 08:21:21 08:23:46 17° 296° (WNW) 08:26:11 145.475/437.950
XW-2F 22 Oct 08:26:47 08:28:27 13° 299° (WNW) 08:30:08 145.980 - 146.000
NUDT-PHONESAT 22 Oct 08:33:09 08:34:59 13° 298° (WNW) 08:36:48 437.300
AO-73 22 Oct 08:35:37 08:39:33 32° 95° (E) 08:43:22 145.935
PRISM 22 Oct 08:38:20 08:38:55 10° 56° (ENE) 08:39:29 437.425
NO-84 22 Oct 08:43:36 08:47:37 63° 29° (NNE) 08:51:17 435.350 FM
FO-29 22 Oct 08:44:45 08:50:03 88° 257° (WSW) 08:55:52 435.910
STRAND 1 22 Oct 08:45:14 08:48:28 17° 271° (W) 08:51:44 437.568
CUBEBUG 2 22 Oct 08:50:33 08:55:06 54° 289° (WNW) 08:59:30 437.445
RS-15 22 Oct 08:57:33 09:09:42 79° 49° (NE) 09:21:08 29.354- 29.394
ZACube-1 22 Oct 08:58:30 09:02:53 62° 101° (E) 09:07:07 437.345
HO-68 22 Oct 08:59:13 09:06:13 56° 295° (WNW) 09:13:11 435.675
YUBILEINY 22 Oct 09:01:48 09:10:07 54° 90° (E) 09:18:31 435.215
PCSat 22 Oct 09:05:30 09:10:51 59° 308° (NW) 09:16:15 145.827
ISS 22 Oct 09:06:49 09:08:43 15° 136° (SE) 09:10:38 437.550
CUTE 1.7 + AOD 2 22 Oct 09:08:57 09:12:09 21° 296° (WNW) 09:15:21 437.475
DELFI C3 22 Oct 09:09:01 09:10:08 11° 88° (E) 09:11:14 145.870
SEEDS 22 Oct 09:12:17 09:15:54 29° 293° (WNW) 09:19:30 437.485
UWE-3 22 Oct 09:25:08 09:29:24 41° 291° (WNW) 09:33:31 435.000/436.395/437.385
CUTE-I 22 Oct 09:26:06 09:27:52 12° 309° (NW) 09:29:40 437.470
AAUSAT CUBESAT 2 22 Oct 09:30:35 09:34:25 38° 290° (WNW) 09:38:15 437.432
SO-50 22 Oct 09:31:35 09:33:56 14° 337° (NNW) 09:36:18 436.795
Oscar 11 22 Oct 09:32:07 09:36:27 86° 107° (ESE) 09:40:45 .
UNISAT 6 22 Oct 09:36:56 09:41:36 84° 75° (ENE) 09:46:20 437.425
XW-2A 22 Oct 09:38:35 09:40:54 18° 295° (WNW) 09:43:13 145.665 - 145.685
Max Valier Satellite 22 Oct 09:39:41 09:42:04 16° 91° (E) 09:44:25 145.860
TIGRISAT 22 Oct 09:51:14 09:55:54 79° 257° (WSW) 10:00:39 435.000
nSIGHT-1 22 Oct 10:04:12 10:07:17 46° 147° (SSE) 10:10:22 .
PRISM 22 Oct 10:09:26 10:13:29 84° 74° (ENE) 10:17:34 437.425
AO-73 22 Oct 10:11:58 10:15:42 28° 294° (WNW) 10:19:20 145.935
EO-79 22 Oct 10:14:27 10:16:09 12° 58° (ENE) 10:17:51 145.935-145.965
POLYITAN 1 22 Oct 10:19:14 10:21:21 14° 59° (ENE) 10:23:30 437.675
AIST 2D 22 Oct 10:20:21 10:23:14 24° 68° (ENE) 10:26:08 435.315
NO-84 22 Oct 10:21:32 10:24:41 24° 229° (SW) 10:27:38 435.350 FM
FO-29 22 Oct 10:33:57 10:36:15 13° 277° (W) 10:38:38 435.910
ZACube-1 22 Oct 10:35:55 10:38:40 16° 300° (WNW) 10:41:22 437.345
QB50P2 22 Oct 10:38:16 10:41:33 22° 64° (ENE) 10:44:51 145.880/145.840
NANOSAT C BR1 22 Oct 10:39:55 10:42:54 19° 62° (ENE) 10:45:54 145.865
DELFI C3 22 Oct 10:41:23 10:45:21 72° 285° (WNW) 10:49:18 145.870
ISS 22 Oct 10:41:30 10:44:45 79° 153° (SSE) 10:48:01 437.550
HO-68 22 Oct 10:48:54 10:52:27 14° 316° (NW) 10:56:01 435.675
DUCHIFAT 1 22 Oct 10:49:24 10:52:32 20° 63° (ENE) 10:55:42 145.980
PCSat 22 Oct 10:51:57 10:55:25 17° 331° (NNW) 10:58:54 145.827
BEESAT 3 22 Oct 10:56:45 10:58:53 14° 111° (ESE) 11:01:01 437.485
EO-88 22 Oct 10:58:20 11:01:59 83° 283° (WNW) 11:05:35 145.990 - 145.960
YUBILEINY 22 Oct 10:59:11 11:07:12 40° 292° (WNW) 11:15:20 435.215
Oscar 11 22 Oct 11:10:09 11:11:56 12° 302° (WNW) 11:13:43 .
RS-15 22 Oct 11:10:54 11:21:04 36° 255° (WSW) 11:30:49 29.354- 29.394
Max Valier Satellite 22 Oct 11:12:36 11:16:05 40° 289° (WNW) 11:19:31 145.860
UNISAT 6 22 Oct 11:16:53 11:18:55 13° 273° (W) 11:20:58 437.425
nSIGHT-1 22 Oct 11:40:28 11:43:35 47° 347° (NNW) 11:46:41 .
LO-87 22 Oct 11:41:51 11:45:21 42° 99° (E) 11:48:47 145.935 - 145.965
EO-79 22 Oct 11:46:58 11:51:14 88° 248° (WSW) 11:55:34 145.935-145.965
ESTCUBE 1 22 Oct 11:50:26 11:54:37 37° 97° (E) 11:58:47 437.505/2401.250
POLYITAN 1 22 Oct 11:52:16 11:56:32 78° 256° (WSW) 12:00:52 437.675
AIST 2D 22 Oct 11:53:28 11:56:22 24° 265° (W) 11:59:16 435.315
Gurwin Techsat 1B 22 Oct 11:58:35 12:01:40 16° 55° (NE) 12:04:46 435.225
SPROUT 22 Oct 12:09:19 12:11:58 16° 90° (E) 12:14:36 437.525
QB50P2 22 Oct 12:13:00 12:17:05 43° 261° (W) 12:21:12 145.880/145.840
NANOSAT C BR1 22 Oct 12:14:06 12:18:15 51° 260° (W) 12:22:27 145.865
ISS 22 Oct 12:18:19 12:21:25 40° 353° (N) 12:24:33 437.550
BEESAT 2 22 Oct 12:20:16 12:23:48 30° 117° (ESE) 12:27:22 435.950
BUGSAT 1 22 Oct 12:23:43 12:27:46 50° 71° (ENE) 12:31:54 437.445
DUCHIFAT 1 22 Oct 12:23:49 12:27:53 46° 261° (W) 12:32:02 145.980
BEESAT 3 22 Oct 12:31:54 12:35:54 71° 309° (NW) 12:39:56 437.485
AO-7 22 Oct 12:33:32 12:38:15 17° 38° (NE) 12:42:58 .
Oscar 19 22 Oct 12:48:49 12:53:47 50° 69° (ENE) 12:58:46 437.125/150
SO-50 22 Oct 12:55:52 12:58:50 17° 27° (NNE) 13:01:49 436.795
M-CUBED/EXP-1 PRIME 22 Oct 13:05:18 13:08:36 78° 72° (ENE) 13:11:53 437.505
VELOX 1 22 Oct 13:07:52 13:12:06 41° 98° (E) 13:16:19 145.980
AO-85 22 Oct 13:09:49 13:13:37 58° 124° (ESE) 13:17:35 145.980
LO-87 22 Oct 13:16:05 13:18:26 17° 296° (WNW) 13:20:47 145.935 - 145.965
nSIGHT-1 22 Oct 13:17:12 13:20:14 39° 7° (N) 13:23:17 .
ESTCUBE 1 22 Oct 13:27:32 13:31:16 26° 295° (WNW) 13:35:00 437.505/2401.250
50 SAT 22 Oct 13:29:34 13:31:56 18° 94° (E) 13:34:17 437.505
ITAMSAT 1 22 Oct 13:30:13 13:31:30 11° 51° (NE) 13:32:47 435.822/435.867
Gurwin Techsat 1B 22 Oct 13:35:33 13:40:52 88° 75° (ENE) 13:46:14 435.225
SPROUT 22 Oct 13:43:59 13:48:14 57° 288° (WNW) 13:52:26 437.525
ISS 22 Oct 13:55:06 13:58:17 47° 13° (NNE) 14:01:28 437.550
BEESAT 2 22 Oct 13:57:43 14:01:28 36° 316° (NW) 14:05:14 435.950
BUGSAT 1 22 Oct 14:00:33 14:03:24 18° 269° (W) 14:06:19 437.445
DX 1 22 Oct 14:07:47 14:12:00 44° 99° (E) 14:16:11 434.975-435.025
BEESAT 3 22 Oct 14:11:46 14:14:10 15° 330° (NNW) 14:16:33 437.485
AO-7 22 Oct 14:21:18 14:29:17 55° 61° (ENE) 14:37:17 .
PCSat 22 Oct 14:24:23 14:27:17 14° 24° (NNE) 14:30:09 145.827
UKube-1 22 Oct 14:27:35 14:31:46 45° 100° (E) 14:35:55 .
Oscar 19 22 Oct 14:29:13 14:33:21 24° 267° (W) 14:37:31 437.125/150
SO-50 22 Oct 14:35:35 14:40:10 64° 49° (NE) 14:44:47 436.795
VELOX 1 22 Oct 14:44:46 14:48:19 24° 296° (WNW) 14:51:53 145.980
ITUPSAT 1 22 Oct 14:47:30 14:49:00 11° 87° (E) 14:50:30 437.325
AO-85 22 Oct 14:51:16 14:54:22 22° 324° (NW) 14:57:35 145.980
nSIGHT-1 22 Oct 14:53:31 14:56:43 81° 206° (SSW) 14:59:55 .
BEESAT 22 Oct 15:00:26 15:03:21 16° 90° (E) 15:06:13 436.000
50 SAT 22 Oct 15:01:23 15:04:18 29° 291° (WNW) 15:07:11 437.505
ITAMSAT 1 22 Oct 15:04:49 15:09:55 60° 70° (ENE) 15:15:04 435.822/435.867
Gurwin Techsat 1B 22 Oct 15:18:49 15:21:32 14° 273° (W) 15:24:17 435.225
ISS 22 Oct 15:31:37 15:34:48 48° 212° (SSW) 15:37:58 437.550
MOZHAYETS 4 22 Oct 15:33:55 15:38:10 36° 97° (E) 15:42:22
BEESAT 2 22 Oct 15:39:38 15:40:21 10° 338° (NNW) 15:41:04 435.950
DX 1 22 Oct 15:44:31 15:47:55 22° 297° (WNW) 15:51:18 434.975-435.025
CUBESAT XI-V 22 Oct 15:51:53 15:54:16 14° 88° (E) 15:56:38 437.345
UKube-1 22 Oct 16:04:13 16:07:30 21° 297° (WNW) 16:10:47 .
PCSat 22 Oct 16:06:54 16:12:07 45° 48° (NE) 16:17:18 145.827
AO-7 22 Oct 16:14:38 16:22:17 40° 262° (W) 16:30:00 .
SO-50 22 Oct 16:16:52 16:20:13 20° 247° (WSW) 16:23:35 436.795
ITUPSAT 1 22 Oct 16:22:42 16:27:32 87° 105° (ESE) 16:32:19 437.325
nSIGHT-1 22 Oct 16:30:40 16:32:34 15° 224° (SW) 16:34:28 .
XW-2B 22 Oct 16:31:26 16:32:18 11° 60° (ENE) 16:33:11 145.730 - 145.750
BEESAT 22 Oct 16:36:50 16:41:36 69° 288° (WNW) 16:46:20 436.000
DOVE 4 22 Oct 16:39:34 16:43:42 55° 72° (ENE) 16:48:05 437.250
ITAMSAT 1 22 Oct 16:45:57 16:49:48 21° 269° (W) 16:53:40 435.822/435.867
KKS-1 22 Oct 16:47:03 16:49:26 14° 89° (E) 16:51:48 437.445
XW-2C 22 Oct 16:52:51 16:55:28 18° 64° (ENE) 16:58:05 145.795 - 145.815
MOZHAYETS 4 22 Oct 17:11:18 17:15:12 28° 295° (WNW) 17:19:04
STARS 22 Oct 17:14:45 17:15:56 11° 87° (E) 17:17:06 437.465
CUBESAT XI-V 22 Oct 17:27:34 17:32:10 73° 286° (WNW) 17:36:45 437.345
CUTE-I 22 Oct 17:29:02 17:34:05 45° 67° (ENE) 17:39:10 437.470
KAITUO 1B 22 Oct 17:29:21 17:32:41 31° 69° (ENE) 17:36:00 145.475/437.950
XW-2F 22 Oct 17:34:35 17:38:12 46° 72° (ENE) 17:41:49 145.980 - 146.000
NUDT-PHONESAT 22 Oct 17:39:42 17:43:11 39° 71° (ENE) 17:46:40 437.300
HO-68 22 Oct 17:43:54 17:50:18 37° 59° (ENE) 17:56:45 435.675
LilacSat-2 22 Oct 17:44:16 17:48:03 69° 74° (ENE) 17:51:52 437.200
XW-2D 22 Oct 17:48:34 17:52:21 75° 75° (ENE) 17:56:08 145.860 - 145.880
PCSat 22 Oct 17:50:31 17:55:24 35° 248° (WSW) 18:00:15 145.827
XW-2B 22 Oct 18:02:06 18:05:53 80° 258° (WSW) 18:09:42 145.730 - 145.750
ITUPSAT 1 22 Oct 18:02:06 18:04:41 15° 304° (WNW) 18:07:15 437.325
CUBEBUG 2 22 Oct 18:15:29 18:19:16 24° 64° (ENE) 18:23:05 437.445
BEESAT 22 Oct 18:17:15 18:18:29 11° 307° (NW) 18:19:44 436.000
DOVE 4 22 Oct 18:19:11 18:21:50 16° 271° (W) 18:24:36 437.250
KKS-1 22 Oct 18:21:59 18:26:28 70° 287° (WNW) 18:30:56 437.445
ZACube-1 22 Oct 18:24:44 18:25:42 11° 56° (NE) 18:26:39 437.345
XW-2C 22 Oct 18:25:45 18:29:22 41° 262° (W) 18:32:58 145.795 - 145.815
CUTE 1.7 + AOD 2 22 Oct 18:27:57 18:31:58 44° 71° (ENE) 18:35:59 437.475
SEEDS 22 Oct 18:31:08 18:34:48 30° 68° (ENE) 18:38:28 437.485
XW-2A 22 Oct 18:39:46 18:42:16 19° 66° (ENE) 18:44:46 145.665 - 145.685
STARS 22 Oct 18:48:25 18:52:53 87° 292° (WNW) 18:57:20 437.465
UWE-3 22 Oct 18:48:36 18:52:37 29° 66° (ENE) 18:56:40 435.000/436.395/437.385
AAUSAT CUBESAT 2 22 Oct 18:48:48 18:51:58 22° 65° (ENE) 18:55:09 437.432
Oscar 11 22 Oct 18:56:31 18:58:23 13° 58° (ENE) 19:00:15 .
BEESAT 2 22 Oct 18:57:44 18:59:41 13° 27° (NNE) 19:01:38 435.950
KAITUO 1B 22 Oct 19:03:50 19:06:43 21° 266° (W) 19:09:37 145.475/437.950
CUBESAT XI-V 22 Oct 19:07:38 19:08:42 11° 305° (NW) 19:09:46 437.345
YUBILEINY 22 Oct 19:07:39 19:15:21 32° 64° (ENE) 19:23:02 435.215
BEESAT 3 22 Oct 19:08:26 19:11:55 28° 41° (NE) 19:15:21 437.485
CUTE-I 22 Oct 19:09:47 19:14:18 28° 266° (W) 19:18:53 437.470
XW-2F 22 Oct 19:10:17 19:12:34 15° 269° (W) 19:14:49 145.980 - 146.000
STRAND 1 22 Oct 19:11:39 19:15:21 19° 91° (E) 19:19:01 437.568
NUDT-PHONESAT 22 Oct 19:14:43 19:17:12 17° 268° (W) 19:19:42 437.300
LilacSat-2 22 Oct 19:21:55 19:22:46 11° 272° (W) 19:23:38 437.200
HO-68 22 Oct 19:30:49 19:37:48 54° 259° (W) 19:44:51 435.675
AO-73 22 Oct 19:33:29 19:37:43 39° 69° (ENE) 19:41:56 145.935
FO-29 22 Oct 19:50:53 19:54:11 13° 84° (E) 19:57:35 435.910
CUBEBUG 2 22 Oct 19:51:03 19:55:35 47° 262° (W) 20:00:12 437.445
ZACube-1 22 Oct 19:56:34 20:01:08 72° 75° (ENE) 20:05:42 437.345
AO-85 22 Oct 19:57:10 20:00:51 25° 38° (NE) 20:04:45 145.980
DELFI C3 22 Oct 19:58:01 19:59:00 11° 59° (ENE) 19:59:59 145.870
KKS-1 22 Oct 20:01:38 20:02:12 10° 306° (NW) 20:02:44 437.445
CUTE 1.7 + AOD 2 22 Oct 20:04:56 20:08:01 19° 268° (W) 20:11:05 437.475
SEEDS 22 Oct 20:06:54 20:10:28 27° 265° (W) 20:14:04 437.485
XW-2A 22 Oct 20:11:45 20:14:47 30° 263° (W) 20:17:51 145.665 - 145.685
Max Valier Satellite 22 Oct 20:22:12 20:24:03 13° 62° (ENE) 20:25:55 145.860
AAUSAT CUBESAT 2 22 Oct 20:23:23 20:27:13 38° 263° (W) 20:31:04 437.432
O/OREOS (USA 219) 22 Oct 20:23:31 20:27:59 57° 110° (ESE) 20:32:30 437.305
UWE-3 22 Oct 20:24:39 20:28:57 36° 264° (W) 20:33:18 435.000/436.395/437.385
STARS 22 Oct 20:26:44 20:28:31 12° 304° (WNW) 20:30:20 437.465
Oscar 11 22 Oct 20:29:32 20:33:53 85° 259° (WSW) 20:38:14 .
BEESAT 2 22 Oct 20:34:19 20:38:19 54° 48° (NE) 20:42:15 435.950
BEESAT 3 22 Oct 20:45:50 20:49:35 40° 240° (WSW) 20:53:14 437.485
STRAND 1 22 Oct 20:49:51 20:54:58 63° 289° (WNW) 21:00:02 437.568
YUBILEINY 22 Oct 21:04:09 21:12:52 68° 267° (W) 21:21:34 435.215
AO-73 22 Oct 21:10:13 21:14:02 26° 267° (W) 21:17:52 145.935
UNISAT 6 22 Oct 21:26:50 21:29:24 15° 88° (E) 21:31:54 437.425
DELFI C3 22 Oct 21:29:13 21:33:07 84° 254° (WSW) 21:37:04 145.870
FO-29 22 Oct 21:33:21 21:40:15 67° 102° (ESE) 21:47:50 435.910
ZACube-1 22 Oct 21:35:25 21:37:54 14° 272° (W) 21:40:22 437.345
AO-85 22 Oct 21:37:07 21:41:35 63° 236° (WSW) 21:46:24 145.980
EO-88 22 Oct 21:38:29 21:42:05 66° 74° (ENE) 21:45:43 145.990 - 145.960
TIGRISAT 22 Oct 21:40:29 21:43:40 18° 90° (E) 21:46:47 435.000
Max Valier Satellite 22 Oct 21:53:45 21:57:26 58° 260° (W) 22:01:08 145.860
O/OREOS (USA 219) 22 Oct 22:04:13 22:07:45 22° 310° (NW) 22:11:20 437.305
BEESAT 2 22 Oct 22:12:49 22:15:41 19° 247° (WSW) 22:18:31 435.950
LO-87 22 Oct 22:20:46 22:23:54 28° 68° (ENE) 22:27:03 145.935 - 145.965
STRAND 1 22 Oct 22:31:42 22:33:09 11° 308° (NW) 22:34:35 437.568
ESTCUBE 1 22 Oct 22:52:44 22:57:03 50° 71° (ENE) 23:01:24 437.505/2401.250
UNISAT 6 22 Oct 23:02:00 23:06:37 69° 287° (WNW) 23:11:05 437.425
YUBILEINY 22 Oct 23:03:35 23:07:54 15° 289° (WNW) 23:12:13 435.215
SPROUT 22 Oct 23:05:31 23:08:35 19° 62° (ENE) 23:11:39 437.525
AIST 2D 22 Oct 23:14:55 23:17:26 19° 93° (E) 23:19:57 435.315
EO-88 22 Oct 23:15:44 23:16:10 10° 272° (W) 23:16:36 145.990 - 145.960
TIGRISAT 22 Oct 23:16:11 23:20:43 55° 289° (WNW) 23:25:07 435.000
FO-29 22 Oct 23:19:07 23:24:54 31° 299° (WNW) 23:31:12 435.910
PRISM 22 Oct 23:22:19 23:26:28 87° 108° (ESE) 23:30:37 437.425
RS-15 22 Oct 23:25:09 23:35:41 36° 105° (ESE) 23:46:10 29.354- 29.394
EO-79 22 Oct 23:30:10 23:31:53 12° 88° (E) 23:33:37 145.935-145.965
POLYITAN 1 22 Oct 23:35:12 23:37:25 14° 89° (E) 23:39:37 437.675
LO-87 22 Oct 23:54:24 23:57:18 22° 266° (W) 00:00:14 145.935 - 145.965
QB50P2 22 Oct 23:54:42 23:58:11 24° 94° (E) 00:01:38 145.880/145.840
NANOSAT C BR1 22 Oct 23:55:35 23:58:43 20° 92° (E) 00:01:51 145.865
50 SAT 23 Oct 00:02:25 00:03:30 11° 62° (ENE) 00:04:36 437.505
DUCHIFAT 1 23 Oct 00:04:46 00:08:04 22° 93° (E) 00:11:20 145.980
VELOX 1 23 Oct 00:07:51 00:12:07 55° 71° (ENE) 00:16:26 145.980
ESTCUBE 1 23 Oct 00:30:54 00:34:08 19° 268° (W) 00:37:23 437.505/2401.250
SPROUT 23 Oct 00:39:57 00:44:07 50° 260° (W) 00:48:20 437.525
UNISAT 6 23 Oct 00:41:44 00:42:25 10° 306° (NW) 00:43:06 437.425
AIST 2D 23 Oct 00:47:35 00:50:41 31° 290° (WNW) 00:53:46 435.315
Oscar 19 23 Oct 00:58:41 01:01:04 13° 87° (E) 01:03:26 437.125/150
PRISM 23 Oct 00:59:38 01:01:06 12° 302° (WNW) 01:02:33 437.425
EO-79 23 Oct 01:03:53 01:08:10 74° 286° (WNW) 01:12:24 145.935-145.965
DX 1 23 Oct 01:06:04 01:10:18 58° 71° (ENE) 01:14:35 434.975-435.025
POLYITAN 1 23 Oct 01:09:24 01:13:39 65° 286° (WNW) 01:17:50 437.675
UKube-1 23 Oct 01:24:44 01:28:57 58° 71° (ENE) 01:33:11 .
QB50P2 23 Oct 01:30:08 01:34:04 37° 292° (WNW) 01:37:58 145.880/145.840
NANOSAT C BR1 23 Oct 01:30:35 01:34:38 44° 290° (WNW) 01:38:39 145.865
50 SAT 23 Oct 01:32:11 01:35:22 53° 259° (W) 01:38:37 437.505
RS-15 23 Oct 01:34:43 01:47:06 81° 310° (NW) 01:59:26 29.354- 29.394
BUGSAT 1 23 Oct 01:37:12 01:41:22 54° 100° (E) 01:45:28 437.445
NO-84 23 Oct 01:39:13 01:41:42 15° 127° (SE) 01:44:10 435.350 FM
DUCHIFAT 1 23 Oct 01:39:54 01:43:53 40° 291° (WNW) 01:47:50 145.980
VELOX 1 23 Oct 01:46:01 01:48:54 17° 269° (W) 01:51:49 145.980
Gurwin Techsat 1B 23 Oct 01:48:52 01:53:21 27° 93° (E) 01:57:49 435.225
ITUPSAT 1 23 Oct 01:56:11 01:59:47 21° 61° (ENE) 02:03:23 437.325
